Location: Unspecified
(0.0000°N, 0.0000°E)
Time: 12:22:52
(UTC+00:00)

A-11 Canister half - Visible Passes

Search period start: 07 October 2022 00:00
Search period end: 17 October 2022 00:00
Orbit: 1516 x 1684 km, 47.2° (Epoch: 06 October)

Date Brightness Start Highest point End Pass type
(mag) Time Alt. Az. Time Alt. Az. Time Alt. Az.
07 Oct 10.5 02:41:01 20° NNE 02:43:05 22° NE 02:49:46 10° E visible
07 Oct 8.9 04:39:18 13° NW 04:47:51 73° SW 04:57:18 10° SSE visible
08 Oct 10.6 02:20:23 20° NE 02:20:23 20° NE 02:26:22 10° E visible
08 Oct 8.9 04:18:40 24° NW 04:24:57 79° SW 04:34:24 10° SE visible
09 Oct 10.9 01:59:41 16° ENE 01:59:41 16° ENE 02:02:53 10° E visible
09 Oct 8.8 03:57:57 39° NW 04:02:03 86° SW 04:11:30 10° SE visible
10 Oct 11.2 01:38:53 11° ENE 01:38:53 11° ENE 01:39:19 10° E visible
10 Oct 8.8 03:37:09 61° NW 03:39:08 88° NE 03:48:34 10° SE visible
11 Oct 8.8 03:16:15 81° NE 03:16:15 81° NE 03:25:38 10° SE visible
11 Oct 10.2 05:15:01 10° W 05:21:12 20° SW 05:27:31 10° S visible
12 Oct 9.2 02:55:16 59° ESE 02:55:16 59° ESE 03:02:40 10° SE visible
12 Oct 10.1 04:53:31 15° W 04:58:14 22° SW 05:04:58 10° S visible
13 Oct 9.8 02:34:11 40° ESE 02:34:11 40° ESE 02:39:41 10° SE visible
13 Oct 9.9 04:32:25 21° WSW 04:35:16 24° SW 04:42:22 10° S visible
14 Oct 10.4 02:13:01 27° ESE 02:13:01 27° ESE 02:16:42 10° SE visible
14 Oct 9.8 04:11:15 26° WSW 04:12:18 26° SW 04:19:45 10° S visible
15 Oct 10.8 01:51:45 18° ESE 01:51:45 18° ESE 01:53:41 10° SE visible
15 Oct 9.8 03:49:59 28° SW 03:49:59 28° SW 03:57:05 10° S visible
16 Oct 11.2 01:30:25 11° SE 01:30:25 11° SE 01:30:39 10° SE visible
16 Oct 9.9 03:28:38 28° SSW 03:28:38 28° SSW 03:34:25 10° S visible
